Accueil
METAR-TAF:

METAR-TAF

Aéroports :

Laval, France

Entrammes

latitude: 48-01-56N, longitude: 000-44-34W, altitude: 101 m

Observation

Le bulletin a été fait il y a 30 minutes, à 13:00 UTC
Vent 13 kt de ouest avec des rafales jusqu'à 23 kt
Température 12°C
Humidité 76%
Pression 1022 hPa
Visibilité 10 km ou plus
Quelques nuages à une hauteur de 2900 ft
Nuages fragmentés à une hauteur de 6600 ft
Nuages fragmentés à une hauteur de 7800 ft

METAR: LFOV 221300Z AUTO 27013G23KT 9999 FEW029 BKN066 BKN078 12/08 Q1022

Heure: 15:30 (13:30 UTC)


TAF: absent

Observations et prévisions météorologiques de plus de 4000 aéroports (messages METAR et TAF).

Les stations disponibles sont représentées par des disques jaunes et rouges sur la carte.

Passer la souris dessus pour voir le nom de la station.

Cliquer dessus pour voir les observations et prévisions météorologiques.

Pour changer de carte: cliquez sur les boutons verts avec une croix noire pour zoomer, sur le bouton vert avec un tiret pour effectuer un zoom arrière, ou sur les flèches vertes pour les cartes adjacentes.


METAR-TAF: